Gunnison, CO

3:59 AM MDT on September 23, 2019 (GMT -0600)
Gunnison County

Weather History for KGUC - July, 2019

Change the Weather History Date:

Sunday, July 21, 2019

  Actual Average Record
Temperature  
Mean Temperature 64 °F -  
Max Temperature 84 °F 77 °F 91 °F (2005)
Min Temperature 45 °F 45 °F 39 °F (2000)
Growing Degree Days 14 (Base 50)    
Moisture  
Dew Point 41 °F    
Average Humidity 50    
Maximum Humidity 93    
Minimum Humidity 14    
Precipitation  
Precipitation 0.00 in - - ()
Sea Level Pressure  
Sea Level Pressure 30.11 in    
Wind  
Wind Speed 4 mph (North)    
Max Wind Speed 13 mph    
Max Gust Speed 20 mph    
Visibility 10 miles    
Events      
Averages and records for this station are not official NWS values.
T = Trace of Precipitation, MM = Missing Value Source: NWS Daily Summary

Daily Weather History Graph

Daily Weather History Graph

Search for Another Location

Airport or City:

Astronomy

Jul. 21, 2019 Rise Set
Actual Time 6:00 AM MDT 8:27 PM MDT
Civil Twilight 5:29 AM MDT 8:58 PM MDT
Nautical Twilight 4:52 AM MDT 9:35 PM MDT
Astronomical Twilight 4:10 AM MDT 10:17 PM MDT
Moon 11:26 PM MDT (7/21) 10:20 AM MDT (7/21)
Length of Visible Light 15h 28m
Length of Day
14h 27m
Waning Gibbous, 80% of the Moon is Illuminated
Jul 21
Waning Gibbous
Jul 24
Last Quarter
Jul 31
New
Aug 7
First Quarter
Aug 15
Full

Hourly Weather History & Observations

Time (MDT) Temp. Windchill Dew Point Humidity Pressure Visibility Wind Dir Wind Speed Gust Speed Precip Events Conditions
12:56 AM 53.1 °F - 48.0 °F 83% 30.04 in 10.0 mi SSE 3.5 mph - N/A   Clear
1:56 AM 51.1 °F - 46.0 °F 83% 30.12 in 10.0 mi North 4.6 mph - N/A   Clear
2:56 AM 50.0 °F - 44.1 °F 80% 30.14 in 10.0 mi NE 5.8 mph - N/A   Clear
3:56 AM 48.9 °F - 43.0 °F 80% 30.16 in 10.0 mi NNE 4.6 mph - N/A   Clear
4:56 AM 46.0 °F 44.8 °F 44.1 °F 93% 30.17 in 10.0 mi SW 3.5 mph - N/A   Clear
5:56 AM 45.0 °F - 43.0 °F 93% 30.19 in 10.0 mi Calm Calm - N/A   Clear
6:56 AM 46.0 °F - 43.0 °F 89% 30.20 in 10.0 mi Calm Calm - N/A   Clear
7:56 AM 51.1 °F - 46.0 °F 83% 30.19 in 10.0 mi East 3.5 mph - N/A   Clear
8:56 AM 57.9 °F - 46.9 °F 67% 30.20 in 10.0 mi Variable 3.5 mph - N/A   Clear
9:56 AM 62.1 °F - 46.9 °F 58% 30.18 in 10.0 mi Calm Calm - N/A   Clear
10:56 AM 66.9 °F - 48.0 °F 51% 30.17 in 10.0 mi Calm Calm - N/A   Clear
11:56 AM 72.0 °F - 46.9 °F 41% 30.14 in 10.0 mi SW 3.5 mph - N/A   Clear
12:56 PM 78.1 °F - 39.9 °F 25% 30.10 in 10.0 mi WSW 4.6 mph - N/A   Clear
1:56 PM 80.1 °F - 28.0 °F 15% 30.09 in 10.0 mi Calm Calm - N/A   Clear
2:56 PM 82.9 °F - 37.0 °F 19% 30.06 in 10.0 mi Variable 3.5 mph - N/A   Clear
3:56 PM 82.9 °F - 28.9 °F 14% 30.05 in 10.0 mi Calm Calm - N/A   Clear
4:56 PM 82.9 °F - 35.1 °F 18% 30.05 in 10.0 mi NNW 5.8 mph - N/A   Clear
5:56 PM 84.0 °F - 30.0 °F 14% 30.04 in 10.0 mi North 8.1 mph - N/A   Clear
6:56 PM 84.0 °F - 28.9 °F 14% 30.03 in 10.0 mi NNW 3.5 mph - N/A   Clear
7:56 PM 82.0 °F - 32.0 °F 16% 30.02 in 10.0 mi North 4.6 mph - N/A   Clear
8:56 PM 72.0 °F - 41.0 °F 33% 30.06 in 10.0 mi NNE 5.8 mph - N/A   Clear
9:56 PM 69.1 °F - 43.0 °F 39% 30.08 in 10.0 mi NE 10.4 mph - N/A   Clear
11:56 PM 68.0 °F - 48.9 °F 50% 30.12 in 10.0 mi ENE 12.7 mph 19.6 mph N/A   Clear